Location: Unspecified
(0.0000°N, 0.0000°E)
Time: 06:53:21
(UTC+00:00)

Envisat - Pass Details

Date: 12 June 2019
Orbit: 764 x 766 km, 98.1° (Epoch: 15 September)

Event Time Altitude Azimuth Distance (km) Brightness Sun altitude
Rises 19:21:33 0° 184° (S) 3,228 6.0 -18.7°
Reaches altitude 10° 19:24:01 10° 192° (SSW) 2,299 5.3 -19.3°
Maximum altitude 19:28:37 36° 258° (WSW) 1,192 4.4 -20.3°
Drops below altitude 10° 19:33:14 10° 324° (NW) 2,291 6.3 -21.4°
Sets 19:35:41 0° 332° (NNW) 3,214 7.1 -21.9°
